Regional Weather Roundup
Issued by NWS Jackson, KY

Home | Current Version | Previous Version | Graphics & Text | Print | Product List | Glossary On
Versions: 1 2 3 4 5 6 7 8 9 10 11 12 13 14 15 16 17 18 19 20 21 22 23 24 25 26 27 28 29 30 31 32 33 34 35 36 37 38 39 40 41 42 43 44 45 46 47 48 49 50
000
ASUS43 KJKL 202119
RWRJKL

EAST KENTUCKY HOURLY WEATHER ROUNDUP
NATIONAL WEATHER SERVICE JACKSON KY
400 PM EST SAT DEC 20 2014

NOTE: "FAIR" INDICATES FEW OR NO CLOUDS BELOW 12,000 FEET WITH
NO SIGNIFICANT WEATHER AND/OR OBSTRUCTIONS TO VISIBILITY.

* THESE REPORTS ARE NOT UNDER NWS QUALITY CONTROL AND MAY NOT
  REPORT WEATHER SUCH AS PRECIPITATION AND FOG.

KYZ079-080-083-085-087-088-110-112-115-119-120-202200
...EASTERN KENTUCKY...

CITY           SKY/WX    TMP DP  RH WIND       PRES   REMARKS
JACKSON        CLOUDY    38  25  59 CALM      30.20R
LONDON         CLOUDY    41  26  55 N3        30.20R
SOMERSET*      CLOUDY    37  27  65 CALM      30.23S
MONTICELLO*    CLOUDY    42  26  53 CALM      30.24S
MIDDLESBORO*   CLOUDY    43  31  64 E5        30.20R
HARLAN APT*    CLOUDY    41  30  65 NW6       30.18R
BLACK MTN*       N/A     32  30  93 W1          N/A
BIG SANDY*     CLOUDY    36  27  69 CALM      30.20S
MOREHEAD APT*  CLOUDY    34  27  75 CALM      30.25S
ASHLAND*       CLOUDY    36  23  60 CALM      30.24R
$$

KYZ035-036-041-042-044-050-067-078-099-202200
...CENTRAL KENTUCKY...

CITY           SKY/WX    TMP DP  RH WIND       PRES   REMARKS
MT STERLING*   CLOUDY    34  28  80 CALM      30.24R
FLEMING/MASON* CLOUDY    32  27  80 N3        30.25S
DANVILLE*      MOSUNNY   36  28  75 CALM      30.24R
RICHMOND*      CLOUDY    36  27  69 CALM      30.22R
LEXINGTON      CLOUDY    36  27  69 N5        30.23R WCI  32
FRANKFORT      CLOUDY    35  25  66 CALM      30.23S
$$

KYZ091>093-OHZ055-061-077-WVZ005-015-034-035-042-202200
...SOUTHERN OHIO/WEST VIRGINIA...

CITY           SKY/WX    TMP DP  RH WIND       PRES   REMARKS
COVINGTON      CLOUDY    32  24  72 N3        30.24S
COLUMBUS       CLOUDY    31  23  72 CALM      30.25R
DAYTON         CLOUDY    32  22  66 CALM      30.25S
WILMINGTON     CLOUDY    30  22  72 NE3       30.24R
HUNTINGTON     CLOUDY    34  24  67 NW3       30.23S
CHARLESTON     CLOUDY    35  24  64 VRB3      30.22S
PINEVILLE*     CLOUDY    38  34  85 MISG      30.22S
BECKLEY        CLOUDY    36  30  79 NW5       30.14R WCI  32
BLUEFIELD      CLOUDY    36  32  85 CALM      30.13S FOG
$$

VAZ002-007-008-TNZ017-027-036-066-071-202200
...SOUTHWEST VIRGINIA/EAST TENNESSEE...

CITY           SKY/WX    TMP DP  RH WIND       PRES   REMARKS
WISE*          CLOUDY    37  30  75 N3        30.15R
JONESVILLE*    MOCLDY    43  32  65 CALM      30.20R
ABINGDON*      CLOUDY    41  37  84 CALM      30.16R
BRISTOL        CLOUDY    42  36  79 W3        30.18R
KNOXVILLE      CLOUDY    43  33  68 CALM      30.20R
OAK RIDGE      CLOUDY    47  32  56 S3        30.20S
CROSSVILLE     CLOUDY    46  30  53 NW6       30.17R
NASHVILLE      PTSUNNY   45  27  49 NW6       30.23S
$$

...KEY TO REMARKS...
VSB - VISIBILITY IN MILES
WCI - WIND CHILL INDEX
HX  - HEAT INDEX

$$



USA.gov is the U.S. government's official web portal to all federal, state and local government web resources and services.